GFSSW_850_thetae_273.txt.gz
Theta_e
300 300 301 301 301 301 301 302 302 302 302 302 303 305 306 309 310 311 310 309 309 309 310 313 313 314 315 314 314 314 312 311 314 315 314 315 314 315 314 313 314 314 313 312 313
300 300 300 301 301 301 302 302 302 303 303 303 303 304 307 308 310 312 309 309 309 309 311 315 314 314 315 315 315 313 311 315 313 314 313 314 314 314 314 314 314 314 314 312 310
300 300 300 300 301 301 302 302 303 303 303 303 303 304 306 308 313 313 309 309 309 309 310 314 314 315 315 315 315 314 314 313 314 315 314 314 314 315 314 314 312 311 311 310 310
300 300 300 300 300 301 301 302 303 304 304 303 303 304 306 309 319 314 308 309 308 309 310 313 315 315 315 314 314 314 314 314 315 314 314 314 313 313 314 313 313 311 311 310 309
302 300 300 300 300 300 301 301 302 304 304 303 303 304 307 313 314 310 309 308 309 309 311 314 314 314 315 313 313 313 313 314 314 314 314 313 313 313 313 314 312 311 310 309 309
308 302 301 300 300 300 300 301 301 303 304 304 303 304 309 314 313 309 308 308 309 311 310 313 314 314 314 314 315 314 314 314 314 314 314 313 312 313 312 312 312 312 310 309 308
317 309 303 301 300 300 300 301 301 301 304 305 304 305 306 311 312 309 308 309 309 311 310 311 314 316 315 314 315 314 314 314 313 313 313 312 309 311 312 313 311 311 310 309 308
319 318 307 303 301 300 300 301 301 301 302 304 304 305 311 313 309 308 308 309 310 311 310 311 314 316 316 315 314 314 314 315 314 313 313 310 307 311 312 312 312 311 310 309 308
321 319 318 305 302 301 301 301 301 301 301 303 306 306 312 310 308 308 308 310 310 310 310 311 315 313 314 313 312 313 313 314 315 313 313 311 309 312 312 312 311 311 309 309 308
323 321 319 319 305 302 301 300 301 301 303 305 307 308 308 310 310 308 307 308 311 312 313 314 313 312 311 312 315 318 313 313 312 312 312 311 311 311 312 312 312 311 310 308 308
322 322 320 319 319 306 301 301 305 309 305 311 311 310 311 311 308 308 308 309 311 313 313 314 311 308 312 312 313 312 312 313 313 312 310 309 310 310 311 311 311 310 310 308 307
323 322 321 321 320 317 302 300 304 303 301 305 308 310 310 309 311 310 307 312 312 312 312 311 310 313 312 312 312 313 312 312 309 310 310 309 310 310 309 311 312 311 310 307 307
322 322 321 321 320 318 304 301 301 301 303 305 304 305 307 307 310 310 307 310 311 312 311 311 312 312 312 311 312 312 311 309 309 310 310 309 308 313 311 312 312 312 310 309 308
321 321 320 321 318 318 311 301 300 301 309 310 305 307 307 307 308 311 309 310 310 311 311 311 310 311 310 311 310 311 311 310 311 309 309 308 308 303 311 311 310 310 310 309 307
319 321 319 319 318 316 309 301 301 311 326 310 307 307 307 307 308 309 309 311 310 309 308 310 310 310 311 311 309 310 309 310 310 310 311 309 305 306 310 310 309 309 310 308 307
317 319 317 318 317 317 303 300 310 316 324 309 306 308 307 308 309 308 309 309 310 310 309 309 309 309 309 307 308 308 310 310 310 309 307 306 307 307 307 308 308 309 310 307 306
313 315 315 317 317 317 308 305 313 321 311 309 307 308 308 308 310 309 310 310 308 308 310 310 309 308 308 309 308 309 309 308 309 307 310 310 308 308 310 309 308 308 307 305 304
310 312 313 313 316 316 312 308 316 316 310 309 308 309 309 309 310 310 309 310 309 309 310 309 310 308 307 309 310 308 308 311 311 313 310 307 309 308 309 309 310 310 307 305 302
306 310 312 313 314 314 309 312 317 316 312 309 309 309 308 309 309 310 310 310 310 308 311 311 311 307 307 307 308 309 309 307 307 302 307 305 306 307 307 307 306 305 305 304 302
303 309 311 312 312 311 310 316 311 313 310 308 312 309 307 307 310 310 310 310 311 308 308 310 311 308 307 307 307 308 306 305 304 305 310 309 309 307 308 306 305 304 304 304 302
301 306 307 309 308 306 308 309 310 312 308 309 310 311 310 308 306 309 310 309 309 308 309 309 310 308 307 307 307 306 307 308 306 307 311 309 308 304 307 307 305 305 307 306 303
300 302 304 305 302 300 305 306 309 310 306 308 308 311 310 308 307 308 310 309 308 308 309 308 308 306 308 306 305 305 305 306 308 308 306 309 307 306 306 307 306 306 307 307 304
297 299 301 303 305 302 302 303 304 306 307 308 307 310 309 309 310 310 309 305 307 308 308 307 303 301 304 306 303 307 306 307 305 304 307 307 307 305 306 307 308 307 308 307 303
296 298 299 300 299 302 304 306 306 303 306 307 308 307 309 310 310 308 307 305 306 307 306 307 307 307 308 311 304 305 305 306 306 306 306 307 307 307 304 305 306 307 308 306 303
296 296 299 300 300 300 304 305 308 304 303 307 307 308 310 311 311 310 306 305 305 306 306 307 303 304 304 304 305 305 306 305 307 308 307 308 308 309 307 303 305 308 308 304 302
295 295 297 297 300 301 301 304 307 306 303 304 308 308 309 311 311 310 306 306 307 305 305 305 306 300 299 303 302 304 303 305 306 307 308 307 307 308 307 307 305 306 307 303 303
294 294 293 296 300 302 302 303 306 307 304 308 306 308 309 310 309 309 308 308 308 305 306 306 305 305 309 301 297 301 301 304 305 305 307 307 308 307 307 305 306 306 307 307 306

GFSSW_850_thetae_279.txt.gz
Theta_e
299 299 300 300 301 301 302 302 302 302 302 302 303 305 306 309 310 310 309 310 309 309 311 312 314 315 315 315 314 314 310 309 311 311 313 313 313 314 313 312 313 313 312 312 312
300 299 299 300 300 301 301 302 303 303 303 302 303 304 307 308 310 311 309 309 309 309 312 313 313 314 314 314 313 309 307 310 312 312 312 313 312 313 313 312 312 313 313 312 311
301 300 300 300 300 300 301 301 302 303 304 304 304 304 306 308 312 313 309 310 309 309 311 314 313 315 314 314 314 310 310 312 314 313 313 313 313 313 312 311 312 313 313 312 311
306 303 300 300 300 300 300 301 301 303 304 304 304 304 306 309 317 314 309 309 309 309 311 313 313 314 312 313 313 313 312 313 314 314 313 313 313 312 312 313 313 313 313 311 310
317 312 304 301 300 300 300 300 301 301 303 305 305 305 307 311 312 312 309 309 309 309 310 312 314 314 313 312 312 311 312 313 314 313 313 313 312 310 311 312 313 313 311 310 310
320 318 317 305 302 300 300 300 300 301 301 304 306 305 308 310 313 312 309 309 309 310 310 312 314 314 313 313 312 313 312 313 313 313 313 312 311 311 311 312 313 312 311 310 310
322 322 319 319 305 302 301 300 300 301 301 302 305 306 307 310 313 312 310 309 309 310 310 313 314 314 314 312 314 313 312 311 311 312 312 311 309 310 312 311 312 312 311 310 309
322 323 322 320 319 306 302 301 301 301 301 301 303 306 309 313 312 311 309 309 310 310 310 311 314 315 315 314 312 313 311 310 312 311 312 309 310 307 310 311 311 312 311 310 309
322 322 322 322 321 320 306 302 301 301 301 301 302 305 307 311 312 310 308 309 310 310 311 313 314 313 313 310 309 310 309 312 311 311 311 310 310 307 310 311 311 312 312 310 309
322 322 322 322 322 321 321 305 301 301 301 301 303 306 307 310 310 309 308 309 311 310 310 311 312 309 309 308 311 311 312 311 310 310 310 310 310 310 310 311 311 312 311 310 309
320 317 320 322 322 322 321 315 303 304 303 304 306 307 310 310 310 308 308 310 311 312 312 312 308 306 308 310 312 312 311 311 309 310 310 309 309 309 308 309 308 310 311 311 310
321 318 320 321 321 321 321 318 302 304 300 304 307 308 310 310 308 309 308 310 311 308 311 310 310 309 308 310 311 311 311 309 308 309 309 308 308 308 307 306 307 308 310 311 309
319 318 319 321 320 320 320 319 307 301 300 302 304 308 309 309 309 309 308 310 310 310 310 310 311 310 311 310 311 310 308 307 309 307 307 305 308 306 308 309 309 307 308 309 310
315 318 320 320 318 319 319 320 313 301 311 309 305 305 307 308 307 309 308 309 309 309 309 309 309 310 309 310 308 310 309 309 309 307 307 305 310 304 306 307 309 308 309 310 308
311 315 315 320 318 319 319 317 302 308 324 308 303 307 307 305 307 309 309 310 308 308 308 310 309 309 309 309 307 308 308 308 309 308 309 307 305 307 305 308 309 308 309 309 308
308 310 313 316 316 318 319 302 305 315 322 308 305 307 306 307 308 308 310 309 309 308 308 308 308 308 308 307 307 306 308 307 307 307 309 304 306 309 303 308 306 307 309 308 308
308 308 310 312 314 316 317 304 311 318 311 308 306 306 306 307 308 308 308 308 308 308 309 309 308 307 307 307 307 308 306 308 309 309 312 308 308 311 307 308 307 306 309 309 307
303 307 308 310 312 314 311 307 315 315 313 306 307 305 307 308 308 308 307 307 306 307 307 308 309 307 306 308 308 306 306 309 311 311 310 307 310 309 305 306 307 309 309 309 306
295 300 305 309 310 310 309 312 316 314 312 308 308 307 307 308 308 308 307 306 305 306 309 308 310 306 306 306 306 307 308 306 306 299 306 306 304 304 304 307 306 306 307 307 306
295 299 303 307 308 309 308 312 311 312 308 308 312 308 307 306 308 307 307 307 309 306 306 309 310 307 306 306 306 306 304 306 304 305 307 307 307 307 308 307 305 303 304 306 305
295 301 303 305 308 306 308 308 309 311 309 310 311 309 308 306 306 307 307 307 308 306 307 307 309 308 307 307 307 306 306 306 304 306 309 308 312 303 305 305 305 303 306 306 305
296 299 303 304 303 300 305 307 308 311 308 309 308 310 308 305 306 306 308 307 307 306 307 308 308 308 308 305 304 305 306 305 308 308 305 307 308 304 303 305 303 305 307 307 306
294 296 300 302 304 302 301 305 305 309 309 309 311 309 308 306 308 307 306 305 306 306 307 306 303 305 310 306 302 306 304 305 303 304 306 308 310 303 303 303 306 305 306 308 306
293 295 298 301 298 301 304 305 308 306 307 310 312 308 308 308 306 307 307 305 306 306 307 306 304 307 316 311 304 306 305 303 305 305 306 306 306 307 305 303 304 306 306 307 307
292 292 295 299 300 300 302 303 306 308 304 307 309 311 311 309 308 308 306 304 305 306 305 306 305 304 305 304 304 305 305 304 305 307 308 310 308 310 307 304 304 308 307 307 307
292 293 294 292 295 294 301 302 305 307 305 306 308 310 313 313 309 308 305 305 307 305 305 305 304 301 302 303 303 303 303 304 305 306 305 306 307 307 306 307 305 306 306 307 307
291 292 292 291 292 293 296 297 301 301 305 305 306 309 312 313 312 310 307 306 306 306 305 305 301 307 316 302 299 307 302 304 304 303 307 307 309 308 307 305 307 308 307 306 308

GFSSW_850_thetae_282.txt.gz
Theta_e
299 300 300 299 300 300 301 301 301 302 302 302 302 304 306 308 310 310 310 310 310 309 311 311 314 315 316 315 315 314 310 310 311 310 312 312 312 313 313 312 312 313 312 311 312
300 300 299 299 299 300 300 301 302 302 303 303 303 304 306 308 309 311 309 309 309 309 312 312 313 314 313 313 312 309 308 310 310 310 312 312 312 312 313 311 311 312 312 312 312
306 302 300 300 300 300 300 300 301 302 304 304 303 304 305 308 310 311 310 309 309 309 311 313 313 314 314 313 312 309 308 310 313 313 313 312 312 313 312 310 311 312 312 312 312
317 314 308 301 300 300 300 300 301 301 303 304 304 304 306 308 314 313 310 309 309 309 311 314 313 314 312 312 312 311 311 312 313 313 313 312 312 311 312 313 312 312 313 313 312
322 319 318 313 304 301 300 300 300 301 301 303 304 305 306 309 310 313 309 310 309 309 311 312 313 313 312 311 311 311 311 313 313 313 312 312 311 310 311 312 312 312 312 312 310
321 322 321 319 315 305 301 300 300 300 301 301 304 305 308 307 312 313 311 310 309 310 311 312 313 313 312 312 311 312 312 312 313 312 312 312 311 311 311 311 311 312 312 311 310
319 321 322 322 320 317 306 301 300 300 300 301 302 305 306 309 313 312 310 309 309 311 311 313 313 313 313 311 313 312 311 309 311 312 311 310 309 309 311 311 311 312 312 311 311
317 319 322 322 322 321 319 305 301 300 300 300 301 304 308 311 310 312 309 309 310 311 310 312 314 314 314 313 310 311 309 310 310 311 311 309 312 308 309 310 311 311 311 311 311
318 319 321 322 322 322 321 319 304 301 300 300 301 303 305 311 312 310 309 309 310 310 312 313 314 313 312 309 307 307 309 310 309 310 311 309 311 308 309 309 310 311 311 311 311
316 316 320 321 321 321 322 321 317 302 301 301 302 304 304 309 310 309 308 310 310 310 311 312 311 308 308 307 313 310 311 310 310 310 310 310 310 310 310 310 310 311 311 311 311
318 318 320 319 320 321 321 321 308 304 304 302 304 305 309 309 309 309 308 310 311 311 309 310 307 307 308 309 311 311 312 311 309 309 310 309 309 309 308 308 307 309 310 311 311
316 318 318 319 320 321 320 320 309 305 301 302 305 307 309 310 309 308 308 309 310 308 310 310 310 308 307 308 311 310 310 309 307 307 308 307 307 307 305 305 306 306 307 309 310
313 316 317 320 319 319 320 320 317 302 300 302 302 306 308 309 309 309 308 310 308 309 310 311 311 309 310 310 311 310 309 306 308 307 306 304 308 307 307 308 309 308 307 308 310
310 312 315 318 318 319 319 319 319 315 311 311 304 305 308 309 308 309 308 309 309 308 308 310 309 310 310 310 309 311 308 308 309 307 307 304 310 306 304 305 308 308 307 308 309
307 309 312 312 315 318 318 319 307 313 322 308 304 306 308 305 307 308 308 309 308 308 308 309 309 309 309 309 307 309 307 308 308 308 308 306 304 308 304 307 308 307 307 308 309
305 307 308 311 313 315 317 312 306 313 320 308 305 307 306 307 308 308 309 309 308 307 307 307 307 307 308 306 307 306 308 307 306 306 307 304 305 309 303 307 306 307 308 308 307
298 305 306 309 311 314 313 308 311 318 310 308 306 306 306 307 308 308 308 308 307 307 308 308 308 306 306 307 307 306 306 308 309 309 313 307 308 310 307 305 307 305 308 308 308
291 296 303 307 309 310 306 307 315 314 314 305 306 304 306 307 308 307 307 308 306 306 307 308 309 306 305 307 307 306 306 309 312 310 309 307 310 310 305 305 307 307 307 309 308
291 293 296 306 308 309 308 311 316 312 310 308 306 306 305 307 308 308 306 306 305 305 310 307 310 305 306 306 306 307 307 305 306 298 306 307 305 304 303 303 306 306 306 308 309
291 293 296 301 306 307 306 311 312 311 307 307 315 308 306 306 308 307 307 306 307 305 305 307 310 306 306 306 306 306 304 307 304 307 308 307 306 308 307 306 303 304 304 307 307
292 298 300 303 304 304 306 308 308 310 309 309 311 308 308 307 306 307 308 307 306 305 305 306 308 307 306 306 306 306 306 306 304 305 309 309 313 304 306 305 304 303 306 307 307
293 295 300 302 302 300 305 305 308 310 309 309 310 311 307 306 307 306 307 306 307 305 307 306 306 306 307 305 304 304 305 304 307 307 304 306 309 305 304 304 304 305 307 307 307
291 293 297 300 303 302 301 305 305 310 310 310 311 310 308 308 309 307 306 305 305 305 307 306 303 302 305 305 302 305 304 304 303 304 306 308 310 303 303 303 304 304 305 307 307
291 292 296 300 298 300 303 305 306 307 308 310 312 310 308 308 307 309 307 305 305 305 307 307 304 310 315 315 305 306 305 304 305 304 307 306 308 308 307 305 303 306 306 307 307
291 291 293 295 296 295 300 301 305 307 305 307 310 312 312 310 309 309 306 305 305 306 305 305 303 303 305 304 305 306 305 303 305 307 309 311 306 310 307 305 304 307 308 307 307
291 293 291 291 294 293 299 297 301 298 303 305 308 309 311 313 312 310 309 306 308 305 305 305 306 302 305 304 304 303 304 304 304 306 305 306 306 307 305 308 306 306 305 306 307
290 291 291 290 290 292 295 295 296 296 299 298 299 303 308 310 310 311 307 307 307 306 306 306 302 306 309 302 300 310 304 303 304 302 306 306 309 307 307 304 305 308 309 308 307

GFSSW_850_thetae_285.txt.gz
Theta_e
300 300 300 299 299 300 301 302 302 303 303 302 302 303 305 307 309 310 310 310 310 310 310 310 312 314 316 316 315 314 312 311 311 309 311 311 311 313 312 311 312 313 312 312 311
304 301 300 300 300 300 300 301 302 302 303 303 303 303 304 307 308 310 310 309 309 309 311 311 313 314 314 313 312 310 310 311 308 307 311 311 311 312 312 311 311 312 312 312 312
320 318 307 302 300 300 300 300 300 301 302 303 303 303 305 307 309 310 310 309 309 309 312 312 313 313 313 312 311 308 309 307 311 313 312 311 311 312 311 311 312 312 312 312 312
320 321 321 317 305 301 300 300 300 300 301 302 304 304 305 307 312 313 311 309 309 309 310 313 313 313 311 312 312 310 310 311 312 313 313 311 312 311 312 313 313 312 312 312 312
319 320 321 321 321 308 301 300 300 300 300 301 303 305 306 308 308 313 310 309 309 309 310 313 313 313 312 311 311 311 310 312 312 313 312 312 311 310 310 312 311 312 312 312 312
316 319 320 321 322 321 310 302 300 300 300 300 301 304 306 308 311 312 311 310 309 310 310 312 312 313 312 311 310 311 311 311 312 312 312 311 310 310 311 310 311 311 311 312 312
316 317 320 321 322 322 321 310 302 300 300 300 300 302 305 309 312 313 311 310 309 310 310 311 313 313 312 311 313 312 311 309 310 311 311 310 309 309 311 311 311 311 311 311 311
317 317 317 321 321 321 322 321 312 302 301 300 300 301 304 308 309 312 310 309 309 310 310 312 313 313 313 312 309 311 308 310 310 310 311 310 313 310 309 309 310 311 311 311 311
317 316 316 316 320 321 321 322 321 316 301 300 300 301 303 308 311 311 310 309 310 311 311 313 314 312 311 308 308 306 312 309 309 310 310 310 312 310 309 309 309 310 310 311 311
316 316 316 317 317 320 321 321 321 317 302 300 301 303 303 307 310 311 309 310 310 311 313 312 310 307 307 308 317 312 312 311 310 310 310 310 311 310 310 310 310 311 310 311 311
314 315 317 318 318 318 320 321 317 306 303 303 303 302 306 307 310 309 309 311 310 310 308 309 307 308 308 307 309 311 312 312 309 308 309 309 309 308 308 308 307 308 309 310 311
311 314 316 317 318 318 319 319 320 311 305 306 303 305 307 309 309 308 308 310 310 307 308 309 308 308 307 307 310 310 310 309 308 307 308 306 308 308 305 304 305 306 307 308 309
308 310 313 316 317 316 319 319 319 317 301 304 302 304 306 308 309 309 308 309 306 309 309 309 311 307 309 309 310 310 309 307 310 306 305 304 309 308 306 307 309 308 307 307 307
304 308 310 313 315 316 316 319 319 318 315 314 304 305 307 308 308 309 309 309 308 307 308 309 308 309 309 310 309 312 307 308 308 308 309 305 313 308 306 304 306 308 307 307 308
299 304 308 309 310 313 316 317 316 314 325 308 303 306 308 307 307 308 308 309 308 307 308 309 308 309 310 310 308 311 307 307 308 308 308 307 307 310 304 307 308 307 307 307 308
295 297 304 307 308 312 312 315 312 316 324 308 305 306 305 307 307 308 309 308 307 307 306 306 307 307 308 305 306 305 307 306 305 307 309 305 307 313 306 306 306 307 307 308 308
294 292 296 304 307 310 311 306 311 318 311 308 305 305 305 307 307 308 308 308 307 306 308 308 307 306 306 307 306 306 307 311 311 309 314 307 308 311 308 305 305 305 308 308 307
293 290 292 297 306 308 307 307 314 313 312 305 305 304 306 306 307 307 308 308 306 306 307 307 306 306 305 307 307 305 307 312 313 311 309 307 310 312 306 305 306 307 308 309 307
290 289 291 294 303 307 307 309 314 312 310 306 305 306 305 306 306 307 306 307 306 305 310 307 308 305 305 305 306 306 307 305 306 298 306 308 306 306 303 303 306 305 306 308 308
289 291 293 301 302 306 305 310 310 310 306 306 315 309 307 305 307 306 305 305 306 305 305 307 310 306 305 305 305 305 303 307 304 309 309 309 307 311 308 306 302 304 304 307 308
289 293 298 301 303 303 305 307 306 309 309 308 312 310 308 306 306 306 307 306 305 304 305 305 308 307 306 306 306 305 305 305 304 305 310 309 313 304 306 306 304 302 306 307 308
290 286 298 301 302 300 304 304 307 309 310 309 309 310 309 307 306 307 307 306 306 305 306 306 306 305 306 304 303 304 304 304 308 307 304 306 309 306 303 304 304 304 307 307 308
289 290 294 300 302 302 301 303 305 309 310 310 311 309 308 307 310 307 306 305 305 305 308 305 302 300 305 304 302 305 303 304 303 304 305 309 310 304 303 303 304 305 306 308 307
290 288 294 297 297 299 302 304 306 306 308 310 312 309 307 309 308 308 306 305 305 305 306 307 305 308 311 312 304 305 304 304 305 304 307 306 309 309 306 305 304 305 306 306 307
290 284 291 287 289 293 296 298 302 301 301 304 310 310 309 310 309 309 307 305 305 306 306 306 304 304 306 305 305 306 305 304 306 307 309 310 306 310 310 306 306 307 307 307 307
290 290 291 290 293 289 296 295 296 296 300 301 297 297 304 311 310 310 308 308 309 305 305 305 307 302 303 304 304 303 304 304 305 306 304 306 307 307 306 307 304 306 307 307 307
290 290 290 287 288 290 291 293 294 295 296 295 294 296 305 300 297 301 304 309 310 307 306 306 304 308 306 303 301 310 307 303 303 302 306 307 309 306 307 303 304 307 308 308 309